This demonstration page uses our WeatherBlox Daily Observations layout. Learn more.

Left ArrowRight Arrow

39.01783, -85.05884

Hourly Observations for June 8, 2015

Temp ( °F °C ) Dew Point ( °F °C ) Humidity (%) Winds ( mph kmh ) Pressure ( in mb ) Visibility ( mi km ) Precip ( " mm )
12:52 am 00:52 Cloudy 77 25 64 17.8 64 64 S 7 11 29.86 1011 10 16 N/A
1:52 am 01:52 Cloudy 76 24.4 64 17.8 67 67 SSW 8 13 29.83 1010 10 16 N/A
2:52 am 02:52 Cloudy 77 25 64 17.8 64 64 SSW 12 19 29.81 1009 10 16 N/A
3:52 am 03:52 Cloudy 77 25 64 17.8 64 64 SSW 12 19 29.81 1010 10 16 N/A
4:52 am 04:52 Cloudy 76 24.4 64 17.8 67 67 SSW 8 13 29.80 1009 10 16 N/A
5:52 am 05:52 Cloudy 74 23.3 64 17.8 71 71 SW 8 13 29.82 1010 10 16 N/A
6:52 am 06:52 Cloudy 74 23.3 63 17.2 69 69 WSW 7 11 29.83 1010 10 16 N/A
7:52 am 07:52 Cloudy 73 22.8 63 17.2 71 71 WSW 10 17 29.85 1011 10 16 N/A
8:52 am 08:52 Cloudy 71 21.7 64 17.8 79 79 SW 9 15 29.84 1011 10 16 0.01 0.25
9:52 am 09:52 Cloudy 71 21.7 64 17.8 79 79 SSW 10 17 29.83 1010 10 16 N/A
10:52 am 10:52 Cloudy 71 21.7 65 18.3 81 81 S 17 28 29.80 1009 10 16 N/A
11:52 am 11:52 Cloudy 72 22.2 65 18.3 79 79 S 8 13 29.80 1009 10 16 N/A
12:52 pm 12:52 Cloudy 75 23.9 65 18.3 71 71 SW 14 22 29.81 1010 10 16 N/A
1:52 pm 13:52 Cloudy 76 24.4 64 17.8 67 67 SW 15 24 29.80 1009 10 16 N/A
2:52 pm 14:52 Cloudy 77 25 64 17.8 64 64 WSW 15 24 29.80 1009 10 16 N/A
3:52 pm 15:52 Cloudy 76 24.4 63 17.2 64 64 WSW 10 17 29.76 1008 10 16 N/A
4:52 pm 16:52 Cloudy 75 23.9 64 17.8 69 69 WSW 12 19 29.77 1008 10 16 N/A
5:52 pm 17:52 Cloudy 74 23.3 64 17.8 71 71 SW 8 13 29.76 1008 10 16 N/A
6:52 pm 18:52 Mostly Cloudy 75 23.9 66 18.9 74 74 SW 8 13 29.74 1007 10 16 N/A
7:52 pm 19:52 Mostly Cloudy 74 23.3 64 17.8 71 71 SW 12 19 29.75 1007 10 16 N/A
8:33 pm 20:33 Mostly Cloudy 73 23 63 17 69 69 WSW 14 22 29.74 1007 10 16 N/A
8:52 pm 20:52 Mostly Cloudy 73 22.8 63 17.2 71 71 SW 10 17 29.76 1008 10 16 N/A
9:52 pm 21:52 Partly Cloudy 71 21.7 63 17.2 76 76 WSW 6 9 29.77 1008 10 16 N/A
10:52 pm 22:52 Mostly Clear 70 21.1 63 17.2 79 79 WSW 5 7 29.79 1009 10 16 N/A
11:28 pm 23:28 Cloudy with Light Rain 68 20 57 14 69 69 N 29 46 29.85 1011 10 16 N/A
11:40 pm 23:40 Cloudy with Thunderstorms 63 17 55 13 77 77 N 23 37 29.85 1011 3 5 N/A
11:52 pm 23:52 Cloudy with Light Thunderstorms 62 16.7 56 13.3 80 80 N 14 22 29.86 1011 9 14 0.04 1.02

Powered by AerisWeather